CES1213 ZPPP-ZPDL

Flight info

Callsign CES1213
Flight time 0h 36m
Altitude 23600
Route SGM H90 P73 UPGE56
Aircraft B737/M-SDE2E3FGHIRWXY/LB1

Departure

Time 2026-05-06 11:55
Airport Kunming Changshui International Airport (ZPPP)

Arrival

Time 2026-05-06 12:31
Airport Dali Fengyi Airport (ZPDL)
Time Latitude Longitude Altitude Speed Heading
2026-05-06 11:49 25.11956 102.93682 6908 ft 0 kts 308°
2026-05-06 11:53 25.11983 102.93642 6908 ft 21 kts 306°
2026-05-06 11:53 25.12047 102.93647 6908 ft 11 kts 37°
2026-05-06 11:53 25.12206 102.93788 6908 ft 30 kts 39°
2026-05-06 11:53 25.12369 102.93936 6908 ft 30 kts 39°
2026-05-06 11:54 25.12534 102.94085 6908 ft 29 kts 39°
2026-05-06 11:54 25.12701 102.94215 6908 ft 27 kts 24°
2026-05-06 11:54 25.12799 102.94139 6908 ft 17 kts 307°
2026-05-06 11:54 25.12873 102.94035 6908 ft 16 kts 301°
2026-05-06 11:55 25.12802 102.93947 6908 ft 17 kts 218°
2026-05-06 11:55 25.12574 102.93748 6908 ft 86 kts 219°
2026-05-06 11:55 25.11863 102.93127 6952 ft 164 kts 218°
2026-05-06 11:55 25.10897 102.92269 7634 ft 191 kts 219°
2026-05-06 11:56 25.09930 102.91390 8836 ft 186 kts 221°
2026-05-06 11:56 25.09128 102.90218 9537 ft 202 kts 251°
2026-05-06 11:56 25.08962 102.88652 10266 ft 217 kts 270°
2026-05-06 11:56 25.08992 102.86936 11003 ft 233 kts 270°
2026-05-06 11:57 25.08988 102.85097 11740 ft 250 kts 269°
2026-05-06 11:57 25.08951 102.83132 12472 ft 267 kts 269°
2026-05-06 11:57 25.08900 102.81057 13316 ft 279 kts 268°
2026-05-06 11:57 25.08845 102.78913 14361 ft 283 kts 268°
2026-05-06 11:58 25.08790 102.76730 15398 ft 288 kts 268°
2026-05-06 11:58 25.08735 102.74532 16401 ft 292 kts 268°
2026-05-06 11:58 25.08681 102.72309 17369 ft 297 kts 268°
2026-05-06 11:58 25.08625 102.70042 18310 ft 301 kts 268°
2026-05-06 11:59 25.08568 102.67732 19225 ft 305 kts 268°
2026-05-06 11:59 25.08509 102.65379 20114 ft 310 kts 268°
2026-05-06 11:59 25.08450 102.63000 20970 ft 314 kts 268°
2026-05-06 11:59 25.08390 102.60608 21789 ft 318 kts 268°
2026-05-06 12:00 25.08328 102.58151 22590 ft 322 kts 268°
2026-05-06 12:00 25.08265 102.55695 23279 ft 327 kts 268°
2026-05-06 12:00 25.08198 102.53119 23552 ft 342 kts 269°
2026-05-06 12:00 25.08117 102.50437 23579 ft 355 kts 268°
2026-05-06 12:01 25.07993 102.47697 23580 ft 356 kts 267°
2026-05-06 12:01 25.07847 102.44971 23580 ft 356 kts 266°
2026-05-06 12:01 25.07697 102.42259 23580 ft 356 kts 266°
2026-05-06 12:01 25.07544 102.39507 23580 ft 356 kts 266°
2026-05-06 12:02 25.07395 102.36773 23580 ft 356 kts 267°
2026-05-06 12:02 25.07248 102.34045 23580 ft 356 kts 266°
2026-05-06 12:02 25.07103 102.31330 23580 ft 356 kts 266°
2026-05-06 12:02 25.06957 102.28590 23581 ft 356 kts 266°
2026-05-06 12:03 25.06813 102.25877 23581 ft 356 kts 266°
2026-05-06 12:03 25.06670 102.23180 23581 ft 356 kts 266°
2026-05-06 12:03 25.06525 102.20450 23581 ft 356 kts 266°
2026-05-06 12:03 25.06379 102.17725 23581 ft 356 kts 266°
2026-05-06 12:04 25.06235 102.15018 23582 ft 356 kts 266°
2026-05-06 12:04 25.06087 102.12277 23582 ft 356 kts 266°
2026-05-06 12:04 25.05941 102.09560 23582 ft 356 kts 266°
2026-05-06 12:04 25.05794 102.06838 23582 ft 356 kts 266°
2026-05-06 12:05 25.05647 102.04127 23582 ft 356 kts 266°
2026-05-06 12:05 25.05498 102.01392 23582 ft 356 kts 266°
2026-05-06 12:05 25.05350 101.98669 23582 ft 356 kts 266°
2026-05-06 12:05 25.05200 101.95945 23582 ft 356 kts 266°
2026-05-06 12:06 25.05050 101.93208 23582 ft 356 kts 266°
2026-05-06 12:06 25.04899 101.90462 23582 ft 356 kts 266°
2026-05-06 12:06 25.04746 101.87708 23583 ft 375 kts 266°
2026-05-06 12:06 25.04580 101.84709 23584 ft 399 kts 266°
2026-05-06 12:07 25.04406 101.81578 23584 ft 421 kts 266°
2026-05-06 12:07 25.04223 101.78277 23582 ft 434 kts 266°
2026-05-06 12:07 25.04037 101.74948 23581 ft 436 kts 266°
2026-05-06 12:07 25.03851 101.71629 23580 ft 436 kts 266°
2026-05-06 12:08 25.03663 101.68301 23581 ft 436 kts 266°
2026-05-06 12:08 25.03473 101.64938 23582 ft 436 kts 266°
2026-05-06 12:08 25.03283 101.61611 23581 ft 436 kts 266°
2026-05-06 12:08 25.03091 101.58252 23580 ft 436 kts 266°
2026-05-06 12:09 25.02928 101.54922 23581 ft 436 kts 268°
2026-05-06 12:09 25.02936 101.51588 23582 ft 436 kts 272°
2026-05-06 12:09 25.03117 101.48237 23582 ft 436 kts 275°
2026-05-06 12:09 25.03389 101.44889 23581 ft 436 kts 276°
2026-05-06 12:10 25.03703 101.41558 23580 ft 436 kts 276°
2026-05-06 12:10 25.04028 101.38248 23581 ft 436 kts 276°
2026-05-06 12:10 25.04357 101.34908 23581 ft 436 kts 276°
2026-05-06 12:10 25.04678 101.31602 23582 ft 436 kts 276°
2026-05-06 12:11 25.04994 101.28271 23581 ft 436 kts 276°
2026-05-06 12:11 25.05303 101.24958 23580 ft 436 kts 276°
2026-05-06 12:11 25.05607 101.21644 23581 ft 436 kts 276°
2026-05-06 12:11 25.05911 101.18287 23581 ft 436 kts 275°
2026-05-06 12:12 25.06209 101.14962 23581 ft 436 kts 275°
2026-05-06 12:12 25.06505 101.11642 23580 ft 436 kts 275°
2026-05-06 12:12 25.06796 101.08345 23579 ft 436 kts 275°
2026-05-06 12:12 25.07090 101.05009 23580 ft 436 kts 275°
2026-05-06 12:13 25.07383 101.01679 23580 ft 436 kts 275°
2026-05-06 12:13 25.07672 100.98367 23580 ft 436 kts 275°
2026-05-06 12:13 25.07960 100.95076 23579 ft 436 kts 275°
2026-05-06 12:13 25.08253 100.91703 23579 ft 436 kts 275°
2026-05-06 12:14 25.08542 100.88384 23580 ft 436 kts 275°
2026-05-06 12:14 25.08826 100.85095 23582 ft 436 kts 275°
2026-05-06 12:14 25.09114 100.81767 23582 ft 436 kts 275°
2026-05-06 12:14 25.09401 100.78427 23581 ft 436 kts 275°
2026-05-06 12:15 25.09684 100.75139 23581 ft 435 kts 275°
2026-05-06 12:15 25.09969 100.71818 23582 ft 435 kts 275°
2026-05-06 12:15 25.10252 100.68501 23583 ft 435 kts 275°
2026-05-06 12:15 25.10535 100.65179 23583 ft 435 kts 275°
2026-05-06 12:16 25.10816 100.61880 23582 ft 435 kts 275°
2026-05-06 12:16 25.11098 100.58553 23582 ft 435 kts 275°
2026-05-06 12:16 25.11378 100.55240 23581 ft 435 kts 275°
2026-05-06 12:16 25.11657 100.51926 23581 ft 435 kts 275°
2026-05-06 12:17 25.11975 100.48635 23582 ft 435 kts 277°
2026-05-06 12:17 25.12523 100.45328 23581 ft 435 kts 284°
2026-05-06 12:17 25.13553 100.42204 23582 ft 435 kts 295°
2026-05-06 12:17 25.15062 100.39320 23582 ft 435 kts 304°
2026-05-06 12:18 25.16932 100.36620 23584 ft 453 kts 310°
2026-05-06 12:18 25.19101 100.34059 23426 ft 455 kts 317°
2026-05-06 12:18 25.21607 100.31943 22878 ft 445 kts 327°
2026-05-06 12:18 25.24330 100.30400 22100 ft 447 kts 337°
2026-05-06 12:19 25.27279 100.29273 21130 ft 447 kts 343°
2026-05-06 12:19 25.30253 100.28507 20369 ft 436 kts 350°
2026-05-06 12:19 25.33230 100.28231 19771 ft 425 kts 359°
2026-05-06 12:19 25.36229 100.28389 19084 ft 431 kts
2026-05-06 12:20 25.39194 100.28748 18352 ft 426 kts
2026-05-06 12:20 25.42097 100.29196 17617 ft 416 kts
2026-05-06 12:20 25.44929 100.29664 16892 ft 412 kts
2026-05-06 12:20 25.47776 100.30126 16150 ft 414 kts
2026-05-06 12:21 25.50586 100.30560 15438 ft 406 kts
2026-05-06 12:21 25.53353 100.30968 14880 ft 392 kts
2026-05-06 12:21 25.56001 100.31342 14578 ft 372 kts
2026-05-06 12:21 25.58509 100.31686 14410 ft 359 kts
2026-05-06 12:22 25.61013 100.32024 14247 ft 359 kts
2026-05-06 12:22 25.63418 100.32384 14078 ft 341 kts
2026-05-06 12:22 25.65684 100.32916 13915 ft 324 kts 14°
2026-05-06 12:22 25.67801 100.33612 13759 ft 309 kts 18°
2026-05-06 12:23 25.69788 100.34358 13610 ft 295 kts 19°
2026-05-06 12:23 25.71703 100.35101 13465 ft 283 kts 19°
2026-05-06 12:23 25.73532 100.35802 13326 ft 271 kts 19°
2026-05-06 12:23 25.75260 100.36454 13192 ft 255 kts 18°
2026-05-06 12:24 25.76900 100.37064 13075 ft 248 kts 18°
2026-05-06 12:24 25.78565 100.37678 12949 ft 248 kts 18°
2026-05-06 12:24 25.80171 100.38239 12824 ft 234 kts 14°
2026-05-06 12:24 25.81763 100.38416 12664 ft 230 kts 354°
2026-05-06 12:25 25.83324 100.38081 12336 ft 227 kts 346°
2026-05-06 12:25 25.84813 100.37543 12052 ft 222 kts 333°
2026-05-06 12:25 25.86051 100.36539 11811 ft 222 kts 310°
2026-05-06 12:25 25.86761 100.35063 11610 ft 218 kts 283°
2026-05-06 12:26 25.86813 100.33398 11258 ft 218 kts 260°
2026-05-06 12:26 25.86500 100.31761 10930 ft 217 kts 257°
2026-05-06 12:26 25.86161 100.30155 10633 ft 212 kts 254°
2026-05-06 12:26 25.85533 100.28691 10356 ft 206 kts 228°
2026-05-06 12:27 25.84353 100.27911 10190 ft 195 kts 192°
2026-05-06 12:27 25.83031 100.27822 10076 ft 187 kts 174°
2026-05-06 12:27 25.81746 100.28068 9966 ft 187 kts 167°
2026-05-06 12:27 25.80473 100.28381 9855 ft 187 kts 167°
2026-05-06 12:28 25.79199 100.28680 9762 ft 186 kts 168°
2026-05-06 12:28 25.77913 100.28972 9584 ft 188 kts 168°
2026-05-06 12:28 25.76656 100.29254 9249 ft 180 kts 168°
2026-05-06 12:28 25.75471 100.29520 8964 ft 167 kts 168°
2026-05-06 12:29 25.74374 100.29768 8739 ft 152 kts 168°
2026-05-06 12:29 25.73386 100.29990 8613 ft 137 kts 168°
2026-05-06 12:29 25.72458 100.30199 8641 ft 136 kts 168°
2026-05-06 12:29 25.71525 100.30409 8645 ft 136 kts 168°
2026-05-06 12:30 25.70535 100.30632 8175 ft 153 kts 168°
2026-05-06 12:30 25.69496 100.30866 7802 ft 151 kts 168°
2026-05-06 12:30 25.68483 100.31093 7511 ft 143 kts 168°
2026-05-06 12:30 25.67545 100.31304 7312 ft 134 kts 168°
2026-05-06 12:31 25.66646 100.31502 7153 ft 128 kts 169°
2026-05-06 12:31 25.65769 100.31707 7056 ft 121 kts 168°
2026-05-06 12:31 25.65161 100.31844 7056 ft 57 kts 169°
2026-05-06 12:31 25.64916 100.31895 7056 ft 32 kts 169°
2026-05-06 12:32 25.64765 100.31985 7056 ft 16 kts 66°
2026-05-06 12:32 25.64780 100.32059 7056 ft 8 kts 79°